Regional Weather Roundup
Issued by NWS Kansas City/Pleasant Hill, MO

Home | Current Version | Previous Version | Text Only | Print | Product List | Glossary On
Versions: 1 2 3 4 5 6 7 8 9 10 11 12 13 14 15 16 17 18 19 20 21 22 23 24 25 26 27
000
ASUS43 KEAX 230510
RWREAX

WEATHER ROUNDUP FOR EASTERN KANSAS AND NORTHWEST MISSOURI
NATIONAL WEATHER SERVICE KANSAS CITY/PLEASANT HILL MO
1200 AM CDT THU MAR 23 2017

KSZ040-057-103>105-MOZ028-029-037-043-230600-
...KANSAS CITY METROPOLITAN AREA...

CITY           SKY/WX    TMP DP  RH WIND       PRES   REMARKS
K.C. INTL      CLOUDY    50  25  37 SE15      30.18S
K.C. DOWNTOWN  CLOUDY    52  24  33 E10       30.18S
LEES SUMMIT    CLOUDY    50  25  37 E13G33    30.19S
OLATHE - IXD   CLOUDY    51  27  39 SE16G22   30.16F
OLATHE - OJC   CLOUDY    50  27  40 E13       30.17S
LAWRENCE       CLOUDY    53  28  38 E18       30.16S

$$

MOZ001>008-011>017-020>025-030>033-038>040-044>046-053-054-230600-
...NORTHERN AND CENTRAL MISSOURI...

CITY           SKY/WX    TMP DP  RH WIND       PRES   REMARKS
ST. JOSEPH     CLOUDY    49  25  39 SE9       30.19F
MOSBY          CLOUDY    50  23  34 SE10      30.21S
WARRENSBURG    CLOUDY    50  23  34 E12G17    30.21F
WHITEMAN AFB   CLOUDY    49  24  36 SE12      30.21S
CLINTON        CLOUDY    50  27  40 E13       30.21S
SEDALIA        CLOUDY    50  23  34 SE18      30.24S
WARSAW         NOT AVBL
CHILLICOTHE      N/A     46  16  30 E13G21    30.26S
KIRKSVILLE     CLOUDY    42  13  30 SE14      30.28F WCI  35

$$

MOZ041-047>049-056>058-063>065-088>090-097-230600-
...EASTERN AND SOUTHERN MISSOURI...

CITY           SKY/WX    TMP DP  RH WIND       PRES   REMARKS
ST. LOUIS INTL MOCLDY    45  20  36 E13       30.35F
SPIRIT OF STL  CLOUDY    45  19  35 E8        30.34F
COLUMBIA       CLOUDY    46  21  37 E16G24    30.27F
JEFFERSON CITY CLOUDY    49  22  34 E16       30.28F
ROLLA          CLOUDY    45  23  42 E16       30.27S
OSAGE BEACH    CLOUDY   N/A N/A N/A E13G18    30.26F
SPRINGFIELD    CLOUDY    53  27  36 SE17G25   30.20S
BRANSON        CLOUDY    48  32  53 SE12G22   30.24S
JOPLIN         CLOUDY    55  37  50 SE17G24   30.15F
WEST PLAINS    CLOUDY    50  26  39 E14       30.28F

$$

IAZ060-094-KSZ022-034>040-054-083-096-NEZ052-066-093-230600-
...KANSAS...SOUTHEAST NEBRASKA AND IOWA...

CITY           SKY/WX    TMP DP  RH WIND       PRES   REMARKS
TOPEKA         CLOUDY    53  30  41 E14       30.14F
MANHATTAN      CLOUDY    54  31  41 E7        30.11F
EMPORIA        CLOUDY    54  39  57 SE13      30.11S
CHANUTE        CLOUDY    55  39  54 SE12      30.13F
WICHITA        CLOUDY    54  42  64 SE13G23   30.06F
OMAHA          CLOUDY    46  24  42 SE22      30.15F
LINCOLN        CLOUDY    50  26  39 SE15      30.13F
FALLS CITY     CLOUDY    49  25  39 SE13G24   30.15F
LAMONI         CLOUDY    43  14  31 SE12G21   30.23F
DES MOINES     CLOUDY    42  18  37 SE14      30.27R WCI  35

$$





USA.gov is the U.S. government's official web portal to all federal, state and local government web resources and services.